SCP
-0 0 0 0 1 1 1 2 4 3 3 3 2 2 2 2 1 1 1 1 1 1
-0 0 0 0 0 1 1 1 2 2 2 2 2 2 3 2 1 1 2 2 2 0
0 0 0 0 0 0 1 1 1 1 2 2 3 3 4 3 1 1 2 2 2 2
0 0 0 0 0 1 1 1 1 1 1 2 3 4 4 3 1 1 1 1 1 1
0 0 0 0 0 0 0 1 0 1 1 2 2 3 2 2 2 2 1 1 1 0
0 0 0 0 0 1 1 1 1 1 2 2 2 1 2 1 1 1 1 0 0 0
0 0 0 0 0 1 2 1 1 1 1 1 1 1 1 2 1 1 0 0 0 0
0 0 0 0 0 1 1 1 1 1 1 1 1 1 2 1 1 1 0 0 0 0
0 0 0 0 0 1 1 1 1 1 0 1 1 1 0 1 0 0 0 0 0 0
0 0 0 0 0 1 1 1 1 1 1 0 1 0 0 0 0 0 0 0 0 0
0 0 0 0 0 1 0 0 1 1 1 0 0 0 0 0 0 0 0 0 0 0
0 0 0 0 0 0 0 0 0 0 0 0 0 0 0 0 0 0 0 0 0 0
0 0 0 0 0 0 0 0 0 0 0 0 0 0 0 0 0 0 0 0 0 0
0 0 0 0 0 0 0 0 0 0 0 0 0 0 0 0 0 0 0 0 0 0
Wind_Speed_500mb
66 52 44 38 37 37 45 53 52 54 54 57 54 50 43 41 45 44 53 61 62 71
59 54 49 50 46 40 40 48 51 53 56 55 51 50 53 48 47 50 53 55 64 65
51 52 48 49 50 42 42 42 49 53 54 53 55 58 59 50 46 50 56 57 63 61
50 50 47 48 48 44 42 44 47 53 54 55 58 65 59 52 45 48 57 58 58 56
51 49 46 45 45 41 45 45 46 49 53 53 50 51 56 49 47 54 60 60 53 64
49 49 45 43 44 37 40 46 46 50 54 52 49 47 52 48 51 56 59 60 58 68
48 47 43 42 40 34 31 39 44 44 45 46 44 46 52 53 54 55 64 62 62 70
46 44 41 38 34 29 30 31 32 37 44 44 41 46 57 52 56 54 66 62 71 71
44 40 38 35 28 30 32 34 33 40 36 42 36 54 51 45 60 60 62 76 80 76
39 36 35 31 26 27 30 30 34 33 34 45 46 47 48 51 58 63 74 87 84 77
35 32 29 29 21 23 29 34 38 37 42 39 35 35 35 40 50 65 79 90 76 84
29 28 25 26 20 24 28 33 35 42 43 35 30 20 21 32 59 64 80 91 90 80
25 25 22 26 21 23 24 30 32 39 38 27 19 18 30 32 59 92 96 84 83 77
25 21 19 24 20 18 20 25 31 34 28 27 32 38 56 41 87 98 94 90 90 80
Wind_Direction_500mb
307 301 282 284 275 265 246 237 234 230 222 221 228 229 229 233 240 242 244 238 237 234
301 295 277 268 274 273 261 237 231 229 224 221 230 232 228 236 249 253 245 234 230 239
294 292 282 268 266 271 258 247 228 228 225 217 218 223 227 241 246 249 244 238 229 225
291 290 281 272 261 269 259 247 234 223 223 216 215 221 227 237 248 244 241 236 236 232
288 290 280 276 266 263 258 240 233 223 216 215 216 220 226 231 247 244 240 237 222 210
285 287 278 277 270 262 255 239 224 214 210 211 216 216 222 228 243 242 239 230 223 216
285 285 277 277 274 266 256 234 221 209 214 214 216 223 226 226 238 240 233 228 228 219
287 284 278 276 276 255 238 218 215 218 224 223 217 225 224 233 243 237 225 224 209 198
287 280 276 276 277 246 233 221 222 225 229 233 235 248 246 240 239 233 222 203 187 181
283 275 272 276 255 240 234 228 230 233 234 252 247 246 235 230 231 223 215 201 191 179
279 269 270 274 262 247 232 227 221 222 235 241 245 243 240 244 226 213 206 188 189 171
274 262 263 268 259 244 231 218 218 220 228 239 244 233 224 224 208 212 189 173 166 166
268 254 255 253 249 253 236 212 214 221 232 228 227 212 209 211 218 179 165 158 155 157
258 249 244 238 244 257 223 209 218 216 208 195 185 190 186 196 180 166 161 151 145 150
Wind_Speed_850mb
66 52 44 38 37 37 45 53 52 54 54 57 54 50 43 41 45 44 53 61 62 71
59 54 49 50 46 40 40 48 51 53 56 55 51 50 53 48 47 50 53 55 64 65
51 52 48 49 50 42 42 42 49 53 54 53 55 58 59 50 46 50 56 57 63 61
50 50 47 48 48 44 42 44 47 53 54 55 58 65 59 52 45 48 57 58 58 56
51 49 46 45 45 41 45 45 46 49 53 53 50 51 56 49 47 54 60 60 53 64
49 49 45 43 44 37 40 46 46 50 54 52 49 47 52 48 51 56 59 60 58 68
48 47 43 42 40 34 31 39 44 44 45 46 44 46 52 53 54 55 64 62 62 70
46 44 41 38 34 29 30 31 32 37 44 44 41 46 57 52 56 54 66 62 71 71
44 40 38 35 28 30 32 34 33 40 36 42 36 54 51 45 60 60 62 76 80 76
39 36 35 31 26 27 30 30 34 33 34 45 46 47 48 51 58 63 74 87 84 77
35 32 29 29 21 23 29 34 38 37 42 39 35 35 35 40 50 65 79 90 76 84
29 28 25 26 20 24 28 33 35 42 43 35 30 20 21 32 59 64 80 91 90 80
25 25 22 26 21 23 24 30 32 39 38 27 19 18 30 32 59 92 96 84 83 77
25 21 19 24 20 18 20 25 31 34 28 27 32 38 56 41 87 98 94 90 90 80
Wind_Direction_850mb
307 301 282 284 275 265 246 237 234 230 222 221 228 229 229 233 240 242 244 238 237 234
301 295 277 268 274 273 261 237 231 229 224 221 230 232 228 236 249 253 245 234 230 239
294 292 282 268 266 271 258 247 228 228 225 217 218 223 227 241 246 249 244 238 229 225
291 290 281 272 261 269 259 247 234 223 223 216 215 221 227 237 248 244 241 236 236 232
288 290 280 276 266 263 258 240 233 223 216 215 216 220 226 231 247 244 240 237 222 210
285 287 278 277 270 262 255 239 224 214 210 211 216 216 222 228 243 242 239 230 223 216
285 285 277 277 274 266 256 234 221 209 214 214 216 223 226 226 238 240 233 228 228 219
287 284 278 276 276 255 238 218 215 218 224 223 217 225 224 233 243 237 225 224 209 198
287 280 276 276 277 246 233 221 222 225 229 233 235 248 246 240 239 233 222 203 187 181
283 275 272 276 255 240 234 228 230 233 234 252 247 246 235 230 231 223 215 201 191 179
279 269 270 274 262 247 232 227 221 222 235 241 245 243 240 244 226 213 206 188 189 171
274 262 263 268 259 244 231 218 218 220 228 239 244 233 224 224 208 212 189 173 166 166
268 254 255 253 249 253 236 212 214 221 232 228 227 212 209 211 218 179 165 158 155 157
258 249 244 238 244 257 223 209 218 216 208 195 185 190 186 196 180 166 161 151 145 150